| time (UTC) | temp F | wind direction | speed MPH | gust MPH | rain 1hr in | rain 24hr in | rain mn in | humidity % | barometer mb |
| 20260507030726 | 53 | 263 | 7.0 | 9.0 | 0.00 | 0.20 | 0.20 | 98 | 1007.1 |
| 20260507030224 | 53 | 94 | 2.0 | 2.0 | 0.00 | 0.20 | 0.20 | 99 | 1006.7 |
| 20260507025721 | 54 | 102 | 0.0 | 0.0 | 0.00 | 0.20 | 0.20 | 99 | 1006.7 |
| 20260507025218 | 54 | 116 | 0.0 | 0.0 | 0.00 | 0.20 | 0.20 | 99 | 1006.6 |
| 20260507024716 | 54 | 83 | 0.0 | 0.0 | 0.00 | 0.20 | 0.20 | 99 | 1006.5 |
| 20260507024213 | 54 | 158 | 1.0 | 3.0 | 0.00 | 0.20 | 0.20 | 99 | 1006.5 |
| 20260507023708 | 55 | 67 | 1.0 | 1.0 | 0.07 | 0.20 | 0.20 | 99 | 1006.4 |
| 20260507023206 | 55 | 89 | 0.0 | 1.0 | 0.07 | 0.20 | 0.20 | 99 | 1006.5 |
| 20260507022703 | 56 | 91 | 0.0 | 0.0 | 0.00 | 0.19 | 0.19 | 99 | 1006.6 |
| 20260507022158 | 57 | 28 | 3.0 | 3.0 | 0.00 | 0.19 | 0.19 | 99 | 1006.5 |
| 20260507021655 | 57 | 125 | 2.0 | 2.0 | 0.00 | 0.19 | 0.19 | 99 | 1006.3 |
| 20260507021150 | 57 | 245 | 3.0 | 5.0 | 0.00 | 0.19 | 0.19 | 99 | 1006.4 |
| 20260507020649 | 57 | 222 | 5.0 | 6.0 | 0.00 | 0.19 | 0.19 | 99 | 1006.3 |
| 20260507020144 | 57 | 216 | 6.0 | 7.0 | 0.00 | 0.19 | 0.19 | 99 | 1006.2 |
| 20260507015643 | 57 | 237 | 5.0 | 6.0 | 0.00 | 0.19 | 0.19 | 99 | 1006.3 |
| 20260507015140 | 57 | 238 | 5.0 | 6.0 | 0.00 | 0.19 | 0.19 | 99 | 1006.4 |
| 20260507014636 | 57 | 215 | 5.0 | 6.0 | 0.00 | 0.19 | 0.19 | 99 | 1006.3 |
| 20260507014132 | 57 | 237 | 6.0 | 7.0 | 0.00 | 0.19 | 0.19 | 99 | 1006.5 |
| 20260507013630 | 57 | 234 | 6.0 | 7.0 | 0.00 | 0.19 | 0.19 | 99 | 1006.4 |
| 20260507013126 | 57 | 218 | 5.0 | 7.0 | 0.00 | 0.19 | 0.19 | 99 | 1006.2 |
| 20260507012624 | 57 | 222 | 6.0 | 7.0 | 0.00 | 0.19 | 0.19 | 99 | 1006.4 |
| 20260507012119 | 57 | 229 | 7.0 | 8.0 | 0.00 | 0.19 | 0.19 | 99 | 1006.4 |
| 20260507011618 | 57 | 231 | 7.0 | 8.0 | 0.00 | 0.19 | 0.19 | 99 | 1006.4 |
| 20260507011113 | 57 | 228 | 5.0 | 8.0 | 0.00 | 0.19 | 0.19 | 99 | 1006.4 |
| 20260507010609 | 57 | 216 | 5.0 | 6.0 | 0.00 | 0.19 | 0.19 | 99 | 1006.3 |
| 20260507010104 | 57 | 209 | 3.0 | 3.0 | 0.00 | 0.19 | 0.19 | 99 | 1006.5 |
| 20260507005602 | 57 | 194 | 3.0 | 5.0 | 0.00 | 0.19 | 0.19 | 99 | 1006.4 |
| 20260507005058 | 57 | 236 | 4.0 | 5.0 | 0.00 | 0.19 | 0.19 | 99 | 1006.4 |
| 20260507004555 | 57 | 197 | 4.0 | 5.0 | 0.00 | 0.19 | 0.19 | 99 | 1006.6 |
| 20260507004053 | 57 | 223 | 4.0 | 5.0 | 0.00 | 0.19 | 0.19 | 99 | 1006.3 |
| 20260507003548 | 57 | 227 | 5.0 | 6.0 | 0.00 | 0.19 | 0.19 | 99 | 1006.6 |
| 20260507003043 | 57 | 238 | 5.0 | 5.0 | 0.00 | 0.19 | 0.19 | 99 | 1006.6 |
| 20260507002540 | 57 | 211 | 6.0 | 7.0 | 0.00 | 0.19 | 0.19 | 99 | 1006.5 |
| 20260507002036 | 57 | 165 | 4.0 | 5.0 | 0.00 | 0.19 | 0.19 | 99 | 1006.3 |
| 20260507001533 | 57 | 162 | 3.0 | 5.0 | 0.00 | 0.19 | 0.19 | 99 | 1006.3 |
| 20260507001031 | 57 | 231 | 7.0 | 7.0 | 0.00 | 0.19 | 0.19 | 99 | 1006.3 |
| 20260507000527 | 57 | 225 | 4.0 | 7.0 | 0.00 | 0.19 | 0.19 | 99 | 1006.3 |
| 20260507000023 | 57 | 209 | 5.0 | 6.0 | 0.00 | 0.19 | 0.19 | 99 | 1006.2 |
| 20260506235520 | 57 | 202 | 5.0 | 6.0 | 0.00 | 0.19 | 0.19 | 99 | 1006.1 |
| 20260506235015 | 57 | 193 | 6.0 | 7.0 | 0.00 | 0.19 | 0.19 | 99 | 1006.2 |
| 20260506234513 | 57 | 233 | 5.0 | 6.0 | 0.00 | 0.19 | 0.19 | 99 | 1006.2 |
| 20260506234010 | 57 | 206 | 7.0 | 9.0 | 0.00 | 0.19 | 0.19 | 99 | 1006.4 |
| 20260506233507 | 57 | 202 | 7.0 | 8.0 | 0.00 | 0.19 | 0.19 | 99 | 1006.4 |
| 20260506233004 | 57 | 209 | 6.0 | 7.0 | 0.00 | 0.19 | 0.19 | 99 | 1006.4 |
| 20260506232500 | 57 | 191 | 5.0 | 7.0 | 0.00 | 0.19 | 0.19 | 99 | 1006.4 |
| 20260506231955 | 57 | 200 | 8.0 | 10.0 | 0.00 | 0.19 | 0.19 | 99 | 1006.3 |
| 20260506231453 | 57 | 233 | 5.0 | 6.0 | 0.00 | 0.19 | 0.19 | 99 | 1006.5 |
| 20260506230950 | 57 | 233 | 6.0 | 7.0 | 0.00 | 0.19 | 0.19 | 99 | 1006.4 |
| 20260506230445 | 57 | 199 | 9.0 | 10.0 | 0.00 | 0.19 | 0.19 | 98 | 1006.5 |
| 20260506225937 | 57 | 222 | 5.0 | 6.0 | 0.00 | 0.19 | 0.19 | 98 | 1006.4 |
| 20260506225435 | 57 | 220 | 5.0 | 7.0 | 0.00 | 0.19 | 0.19 | 98 | 1006.6 |
| 20260506224931 | 57 | 180 | 5.0 | 6.0 | 0.00 | 0.19 | 0.19 | 98 | 1006.3 |
| 20260506224429 | 57 | 204 | 8.0 | 8.0 | 0.00 | 0.19 | 0.19 | 99 | 1006.5 |
| 20260506223925 | 57 | 218 | 5.0 | 7.0 | 0.00 | 0.19 | 0.19 | 99 | 1006.4 |
| 20260506223420 | 57 | 215 | 7.0 | 9.0 | 0.00 | 0.19 | 0.19 | 99 | 1006.5 |
| 20260506222918 | 58 | 200 | 7.0 | 9.0 | 0.00 | 0.19 | 0.19 | 99 | 1006.6 |
| 20260506222414 | 58 | 217 | 7.0 | 11.0 | 0.00 | 0.19 | 0.19 | 99 | 1006.6 |
| 20260506221912 | 58 | 245 | 2.0 | 3.0 | 0.00 | 0.19 | 0.19 | 99 | 1006.6 |
| 20260506221409 | 58 | 206 | 4.0 | 7.0 | 0.00 | 0.19 | 0.19 | 99 | 1006.7 |
| 20260506220906 | 58 | 233 | 4.0 | 6.0 | 0.00 | 0.19 | 0.19 | 99 | 1006.7 |
| 20260506220402 | 58 | 222 | 4.0 | 5.0 | 0.00 | 0.19 | 0.19 | 99 | 1006.8 |
| 20260506215859 | 58 | 222 | 7.0 | 9.0 | 0.00 | 0.19 | 0.19 | 99 | 1006.8 |
| 20260506215354 | 58 | 209 | 5.0 | 7.0 | 0.00 | 0.19 | 0.19 | 99 | 1006.8 |
| 20260506214850 | 58 | 248 | 5.0 | 6.0 | 0.00 | 0.19 | 0.19 | 99 | 1006.9 |
| 20260506214347 | 58 | 116 | 4.0 | 6.0 | 0.00 | 0.19 | 0.19 | 99 | 1007.1 |
| 20260506213845 | 58 | 229 | 3.0 | 5.0 | 0.00 | 0.19 | 0.19 | 99 | 1007.0 |
| 20260506213342 | 58 | 217 | 4.0 | 6.0 | 0.00 | 0.19 | 0.19 | 99 | 1007.1 |
| 20260506212839 | 58 | 214 | 7.0 | 10.0 | 0.00 | 0.19 | 0.19 | 99 | 1007.0 |
| 20260506212336 | 59 | 125 | 4.0 | 5.0 | 0.00 | 0.19 | 0.19 | 99 | 1007.1 |
| 20260506211830 | 59 | 191 | 5.0 | 6.0 | 0.00 | 0.19 | 0.19 | 99 | 1007.1 |
| 20260506211327 | 59 | 226 | 3.0 | 3.0 | 0.05 | 0.19 | 0.19 | 99 | 1007.2 |
| 20260506210824 | 59 | 200 | 6.0 | 7.0 | 0.07 | 0.18 | 0.18 | 99 | 1007.2 |
| 20260506210321 | 59 | 180 | 6.0 | 8.0 | 0.12 | 0.18 | 0.18 | 99 | 1007.3 |
| 20260506205818 | 59 | 132 | 1.0 | 2.0 | 0.12 | 0.17 | 0.17 | 99 | 1007.3 |
| 20260506205314 | 59 | 142 | 3.0 | 3.0 | 0.14 | 0.16 | 0.16 | 99 | 1007.4 |
| 20260506204810 | 59 | 107 | 2.0 | 2.0 | 0.12 | 0.15 | 0.15 | 99 | 1007.3 |
| 20260506204308 | 59 | 164 | 4.0 | 5.0 | 0.12 | 0.14 | 0.14 | 99 | 1007.6 |
| 20260506203806 | 59 | 108 | 1.0 | 1.0 | 0.05 | 0.12 | 0.12 | 99 | 1007.5 |
| 20260506203303 | 59 | 130 | 2.0 | 2.0 | 0.05 | 0.12 | 0.12 | 99 | 1007.6 |
| 20260506202800 | 59 | 188 | 4.0 | 7.0 | 0.07 | 0.11 | 0.11 | 99 | 1007.6 |
| 20260506202256 | 59 | 110 | 1.0 | 1.0 | 0.12 | 0.11 | 0.11 | 99 | 1007.5 |
| 20260506201747 | 59 | 180 | 2.0 | 2.0 | 0.05 | 0.10 | 0.10 | 99 | 1007.5 |
| 20260506201244 | 59 | 157 | 1.0 | 1.0 | 0.07 | 0.09 | 0.09 | 99 | 1007.6 |
| 20260506200741 | 59 | 138 | 1.0 | 1.0 | 0.07 | 0.09 | 0.09 | 98 | 1007.7 |
| 20260506200238 | 59 | 144 | 1.0 | 1.0 | 0.00 | 0.08 | 0.08 | 98 | 1007.6 |
| 20260506195734 | 59 | 93 | 0.0 | 0.0 | 0.00 | 0.08 | 0.08 | 98 | 1007.5 |
| 20260506195231 | 59 | 89 | 0.0 | 1.0 | 0.00 | 0.08 | 0.08 | 98 | 1007.3 |
| 20260506194728 | 59 | 95 | 0.0 | 0.0 | 0.00 | 0.08 | 0.08 | 98 | 1007.4 |
| 20260506194224 | 59 | 116 | 1.0 | 2.0 | 0.05 | 0.08 | 0.08 | 98 | 1007.5 |
| 20260506193723 | 59 | 155 | 1.0 | 2.0 | 0.05 | 0.08 | 0.08 | 98 | 1007.8 |
| 20260506193219 | 59 | 193 | 2.0 | 2.0 | 0.00 | 0.07 | 0.07 | 98 | 1007.8 |
| 20260506192715 | 59 | 135 | 2.0 | 2.0 | 0.00 | 0.07 | 0.07 | 98 | 1007.7 |
| 20260506192212 | 59 | 209 | 1.0 | 2.0 | 0.00 | 0.07 | 0.07 | 98 | 1008.0 |
| 20260506191709 | 59 | 202 | 1.0 | 2.0 | 0.07 | 0.07 | 0.07 | 98 | 1008.1 |
| 20260506191205 | 59 | 260 | 1.0 | 2.0 | 0.07 | 0.07 | 0.07 | 98 | 1008.1 |
| 20260506190702 | 59 | 215 | 3.0 | 5.0 | 0.05 | 0.06 | 0.06 | 98 | 1008.1 |
| 20260506190153 | 59 | 173 | 3.0 | 3.0 | 0.12 | 0.06 | 0.06 | 98 | 1008.2 |
| 20260506185650 | 59 | 163 | 3.0 | 5.0 | 0.07 | 0.05 | 0.05 | 98 | 1008.6 |
| 20260506185146 | 59 | 223 | 3.0 | 5.0 | 0.05 | 0.04 | 0.04 | 98 | 1008.5 |
| 20260506184644 | 59 | 158 | 2.0 | 3.0 | 0.05 | 0.04 | 0.04 | 98 | 1008.4 |
| 20260506184141 | 60 | 166 | 2.0 | 2.0 | 0.00 | 0.03 | 0.03 | 98 | 1008.6 |
| 20260506183638 | 60 | 168 | 1.0 | 2.0 | 0.00 | 0.03 | 0.03 | 97 | 1008.5 |
| 20260506183134 | 60 | 178 | 2.0 | 2.0 | 0.07 | 0.03 | 0.03 | 97 | 1008.7 |
| 20260506182632 | 60 | 209 | 4.0 | 5.0 | 0.07 | 0.03 | 0.03 | 96 | 1008.7 |
| 20260506182128 | 60 | 200 | 6.0 | 7.0 | 0.07 | 0.02 | 0.02 | 95 | 1009.0 |
| 20260506181626 | 61 | 220 | 5.0 | 6.0 | 0.12 | 0.02 | 0.02 | 94 | 1008.8 |
| 20260506181123 | 62 | 218 | 7.0 | 8.0 | 0.05 | 0.01 | 0.01 | 91 | 1008.8 |
| 20260506180620 | 63 | 237 | 10.0 | 11.0 | 0.00 | 0.00 | 0.00 | 86 | 1008.7 |
| 20260506180116 | 64 | 216 | 6.0 | 8.0 | 0.00 | 0.00 | 0.00 | 81 | 1008.5 |
| 20260506175613 | 66 | 222 | 9.0 | 10.0 | 0.00 | 0.00 | 0.00 | 77 | 1008.2 |
| 20260506175109 | 66 | 238 | 11.0 | 17.0 | 0.00 | 0.00 | 0.00 | 75 | 1008.1 |
| 20260506174608 | 66 | 227 | 9.0 | 10.0 | 0.00 | 0.00 | 0.00 | 73 | 1008.0 |
| 20260506174104 | 67 | 221 | 9.0 | 11.0 | 0.00 | 0.00 | 0.00 | 73 | 1007.8 |
| 20260506173602 | 67 | 228 | 8.0 | 10.0 | 0.00 | 0.00 | 0.00 | 73 | 1007.9 |
| 20260506173058 | 67 | 234 | 11.0 | 15.0 | 0.00 | 0.00 | 0.00 | 72 | 1008.0 |
| 20260506172556 | 67 | 236 | 9.0 | 11.0 | 0.00 | 0.00 | 0.00 | 71 | 1007.9 |
| 20260506172051 | 67 | 227 | 8.0 | 9.0 | 0.00 | 0.00 | 0.00 | 71 | 1008.0 |
| 20260506171549 | 67 | 207 | 7.0 | 8.0 | 0.00 | 0.00 | 0.00 | 71 | 1007.9 |
| 20260506171047 | 67 | 201 | 7.0 | 8.0 | 0.00 | 0.00 | 0.00 | 71 | 1007.9 |
| 20260506170543 | 67 | 207 | 7.0 | 8.0 | 0.00 | 0.00 | 0.00 | 71 | 1008.0 |
| 20260506170035 | 67 | 257 | 7.0 | 8.0 | 0.00 | 0.00 | 0.00 | 71 | 1008.1 |
| 20260506165534 | 67 | 229 | 10.0 | 13.0 | 0.00 | 0.00 | 0.00 | 72 | 1008.2 |
| 20260506165030 | 67 | 153 | 7.0 | 9.0 | 0.00 | 0.00 | 0.00 | 73 | 1008.4 |
| 20260506164527 | 67 | 196 | 5.0 | 7.0 | 0.00 | 0.00 | 0.00 | 73 | 1008.4 |
| 20260506164024 | 67 | 159 | 7.0 | 8.0 | 0.00 | 0.00 | 0.00 | 73 | 1008.5 |
| 20260506163520 | 66 | 218 | 3.0 | 5.0 | 0.00 | 0.00 | 0.00 | 74 | 1008.7 |
| 20260506163016 | 66 | 205 | 6.0 | 7.0 | 0.00 | 0.00 | 0.00 | 74 | 1008.8 |
| 20260506162512 | 66 | 154 | 5.0 | 7.0 | 0.00 | 0.00 | 0.00 | 74 | 1008.9 |
| 20260506162009 | 66 | 126 | 4.0 | 6.0 | 0.00 | 0.00 | 0.00 | 75 | 1009.0 |
| 20260506161507 | 66 | 158 | 5.0 | 7.0 | 0.00 | 0.00 | 0.00 | 75 | 1009.2 |
| 20260506161004 | 65 | 163 | 3.0 | 3.0 | 0.00 | 0.00 | 0.00 | 76 | 1009.3 |
| 20260506160502 | 66 | 153 | 5.0 | 6.0 | 0.00 | 0.00 | 0.00 | 76 | 1009.4 |
| 20260506155958 | 65 | 239 | 5.0 | 7.0 | 0.00 | 0.00 | 0.00 | 77 | 1009.5 |
| 20260506155456 | 65 | 184 | 4.0 | 5.0 | 0.00 | 0.00 | 0.00 | 77 | 1009.6 |
| 20260506153628 | 64 | 262 | 6.0 | 8.0 | 0.00 | 0.00 | 0.00 | 79 | 1010.1 |
| 20260506153125 | 64 | 220 | 9.0 | 11.0 | 0.00 | 0.00 | 0.00 | 78 | 1010.2 |
| 20260506152622 | 64 | 233 | 3.0 | 5.0 | 0.00 | 0.00 | 0.00 | 79 | 1010.2 |
| 20260506152120 | 64 | 197 | 6.0 | 7.0 | 0.00 | 0.00 | 0.00 | 79 | 1010.1 |
| 20260506151619 | 64 | 241 | 7.0 | 8.0 | 0.00 | 0.00 | 0.00 | 79 | 1009.8 |
| 20260506151115 | 64 | 238 | 4.0 | 6.0 | 0.00 | 0.00 | 0.00 | 79 | 1009.8 |
| 20260506150612 | 64 | 160 | 2.0 | 3.0 | 0.00 | 0.00 | 0.00 | 79 | 1009.9 |
| 20260506150109 | 64 | 209 | 6.0 | 7.0 | 0.00 | 0.00 | 0.00 | 80 | 1010.1 |
| 20260506145606 | 64 | 195 | 3.0 | 3.0 | 0.00 | 0.00 | 0.00 | 79 | 1010.0 |
| 20260506145103 | 64 | 208 | 4.0 | 5.0 | 0.00 | 0.00 | 0.00 | 79 | 1010.0 |
| 20260506144559 | 64 | 117 | 2.0 | 2.0 | 0.00 | 0.00 | 0.00 | 79 | 1009.6 |
| 20260506144056 | 64 | 182 | 3.0 | 3.0 | 0.00 | 0.00 | 0.00 | 80 | 1009.9 |
| 20260506143554 | 64 | 223 | 5.0 | 6.0 | 0.00 | 0.00 | 0.00 | 80 | 1010.0 |
| 20260506143052 | 63 | 180 | 3.0 | 5.0 | 0.00 | 0.00 | 0.00 | 81 | 1009.8 |
| 20260506142550 | 63 | 195 | 5.0 | 6.0 | 0.00 | 0.00 | 0.00 | 82 | 1009.8 |
| 20260506142048 | 63 | 160 | 2.0 | 2.0 | 0.00 | 0.00 | 0.00 | 82 | 1009.7 |
| 20260506141546 | 63 | 199 | 3.0 | 3.0 | 0.00 | 0.00 | 0.00 | 82 | 1009.7 |
| 20260506141044 | 62 | 228 | 5.0 | 6.0 | 0.00 | 0.00 | 0.00 | 83 | 1009.8 |
| 20260506140541 | 62 | 160 | 4.0 | 5.0 | 0.00 | 0.00 | 0.00 | 82 | 1009.9 |
| 20260506140038 | 62 | 185 | 3.0 | 3.0 | 0.00 | 0.00 | 0.00 | 83 | 1009.9 |
| 20260506135535 | 62 | 226 | 3.0 | 3.0 | 0.00 | 0.00 | 0.00 | 83 | 1010.1 |
| 20260506135031 | 62 | 197 | 3.0 | 3.0 | 0.00 | 0.00 | 0.00 | 83 | 1009.9 |
| 20260506134528 | 62 | 238 | 4.0 | 6.0 | 0.00 | 0.00 | 0.00 | 84 | 1010.1 |
| 20260506134024 | 62 | 178 | 4.0 | 5.0 | 0.00 | 0.00 | 0.00 | 84 | 1010.1 |
| 20260506133521 | 61 | 178 | 3.0 | 3.0 | 0.00 | 0.00 | 0.00 | 84 | 1010.2 |
| 20260506133018 | 61 | 179 | 4.0 | 5.0 | 0.00 | 0.00 | 0.00 | 84 | 1010.3 |
| 20260506132515 | 61 | 249 | 3.0 | 3.0 | 0.00 | 0.00 | 0.00 | 84 | 1010.3 |
| 20260506132012 | 61 | 220 | 4.0 | 5.0 | 0.00 | 0.00 | 0.00 | 84 | 1010.1 |
| 20260506131509 | 61 | 217 | 3.0 | 3.0 | 0.00 | 0.00 | 0.00 | 84 | 1010.2 |
| 20260506131006 | 61 | 217 | 4.0 | 6.0 | 0.00 | 0.00 | 0.00 | 85 | 1010.4 |
| 20260506130503 | 60 | 233 | 5.0 | 6.0 | 0.00 | 0.00 | 0.00 | 85 | 1010.3 |
| 20260506130000 | 60 | 131 | 3.0 | 3.0 | 0.00 | 0.00 | 0.00 | 85 | 1010.2 |
| 20260506125458 | 60 | 220 | 4.0 | 5.0 | 0.00 | 0.00 | 0.00 | 85 | 1010.1 |
| 20260506124955 | 60 | 238 | 4.0 | 5.0 | 0.00 | 0.00 | 0.00 | 86 | 1010.4 |
| 20260506124453 | 60 | 214 | 5.0 | 7.0 | 0.00 | 0.00 | 0.00 | 85 | 1010.2 |
| 20260506123951 | 60 | 188 | 3.0 | 5.0 | 0.00 | 0.00 | 0.00 | 85 | 1010.2 |
| 20260506123449 | 60 | 162 | 4.0 | 6.0 | 0.00 | 0.00 | 0.00 | 86 | 1010.3 |
| 20260506122946 | 60 | 199 | 5.0 | 6.0 | 0.00 | 0.00 | 0.00 | 86 | 1010.2 |
| 20260506122443 | 59 | 214 | 5.0 | 6.0 | 0.00 | 0.00 | 0.00 | 86 | 1010.4 |
| 20260506121941 | 59 | 227 | 5.0 | 7.0 | 0.00 | 0.00 | 0.00 | 86 | 1010.5 |
| 20260506121438 | 59 | 217 | 9.0 | 10.0 | 0.00 | 0.00 | 0.00 | 86 | 1010.3 |
| 20260506120935 | 59 | 217 | 5.0 | 7.0 | 0.00 | 0.00 | 0.00 | 86 | 1010.3 |
| 20260506120432 | 59 | 191 | 4.0 | 5.0 | 0.00 | 0.00 | 0.00 | 86 | 1010.3 |
| 20260506115929 | 59 | 237 | 4.0 | 5.0 | 0.00 | 0.00 | 0.00 | 87 | 1010.6 |
| 20260506115427 | 59 | 247 | 5.0 | 6.0 | 0.00 | 0.00 | 0.00 | 87 | 1010.7 |
| 20260506114925 | 58 | 221 | 5.0 | 7.0 | 0.00 | 0.00 | 0.00 | 87 | 1010.7 |
| 20260506114423 | 58 | 237 | 4.0 | 5.0 | 0.00 | 0.00 | 0.00 | 87 | 1010.6 |
| 20260506113921 | 59 | 200 | 6.0 | 7.0 | 0.00 | 0.00 | 0.00 | 87 | 1010.5 |
| 20260506113419 | 58 | 177 | 4.0 | 6.0 | 0.00 | 0.00 | 0.00 | 86 | 1010.5 |
| 20260506112915 | 58 | 205 | 5.0 | 6.0 | 0.00 | 0.00 | 0.00 | 87 | 1010.4 |
| 20260506112413 | 58 | 210 | 4.0 | 6.0 | 0.00 | 0.00 | 0.00 | 88 | 1010.9 |
| 20260506111910 | 57 | 236 | 3.0 | 3.0 | 0.00 | 0.00 | 0.00 | 88 | 1010.9 |
| 20260506111408 | 57 | 209 | 5.0 | 6.0 | 0.00 | 0.00 | 0.00 | 88 | 1010.9 |
| 20260506110905 | 57 | 189 | 3.0 | 5.0 | 0.00 | 0.00 | 0.00 | 88 | 1010.9 |
| 20260506110402 | 57 | 227 | 4.0 | 5.0 | 0.00 | 0.00 | 0.00 | 89 | 1011.1 |
| 20260506105859 | 57 | 245 | 5.0 | 7.0 | 0.00 | 0.00 | 0.00 | 88 | 1010.9 |
| 20260506105355 | 57 | 224 | 3.0 | 5.0 | 0.00 | 0.00 | 0.00 | 88 | 1010.8 |
| 20260506104853 | 57 | 243 | 3.0 | 5.0 | 0.00 | 0.00 | 0.00 | 88 | 1010.9 |
| 20260506104350 | 57 | 258 | 4.0 | 6.0 | 0.00 | 0.00 | 0.00 | 88 | 1010.8 |
| 20260506103848 | 57 | 203 | 5.0 | 7.0 | 0.00 | 0.00 | 0.00 | 88 | 1010.7 |
| 20260506103345 | 57 | 223 | 3.0 | 3.0 | 0.00 | 0.00 | 0.00 | 88 | 1010.8 |
| 20260506102842 | 57 | 242 | 3.0 | 3.0 | 0.00 | 0.00 | 0.00 | 88 | 1010.7 |
| 20260506102340 | 57 | 248 | 4.0 | 5.0 | 0.00 | 0.00 | 0.00 | 87 | 1010.8 |
| 20260506101837 | 57 | 239 | 4.0 | 5.0 | 0.00 | 0.00 | 0.00 | 86 | 1010.6 |
| 20260506101333 | 57 | 218 | 5.0 | 6.0 | 0.00 | 0.00 | 0.00 | 87 | 1010.4 |
| 20260506100831 | 57 | 206 | 5.0 | 6.0 | 0.00 | 0.00 | 0.00 | 87 | 1010.4 |
| 20260506100329 | 56 | 220 | 5.0 | 6.0 | 0.00 | 0.00 | 0.00 | 87 | 1010.6 |
| 20260506095827 | 56 | 236 | 4.0 | 5.0 | 0.00 | 0.00 | 0.00 | 88 | 1010.7 |
| 20260506095324 | 56 | 241 | 5.0 | 6.0 | 0.00 | 0.00 | 0.00 | 87 | 1010.6 |
| 20260506094821 | 57 | 239 | 3.0 | 5.0 | 0.00 | 0.00 | 0.00 | 85 | 1010.3 |
| 20260506094320 | 57 | 160 | 2.0 | 2.0 | 0.00 | 0.00 | 0.00 | 86 | 1010.5 |
| 20260506093818 | 56 | 233 | 4.0 | 5.0 | 0.00 | 0.00 | 0.00 | 87 | 1010.4 |
| 20260506093314 | 56 | 229 | 4.0 | 7.0 | 0.00 | 0.00 | 0.00 | 87 | 1010.5 |
| 20260506092812 | 57 | 238 | 5.0 | 5.0 | 0.00 | 0.00 | 0.00 | 86 | 1010.5 |
| 20260506092310 | 57 | 246 | 4.0 | 5.0 | 0.00 | 0.00 | 0.00 | 85 | 1010.5 |
| 20260506091807 | 57 | 221 | 5.0 | 7.0 | 0.00 | 0.00 | 0.00 | 85 | 1010.5 |
| 20260506091304 | 57 | 235 | 3.0 | 5.0 | 0.00 | 0.00 | 0.00 | 85 | 1010.3 |
| 20260506090802 | 57 | 258 | 5.0 | 6.0 | 0.00 | 0.00 | 0.00 | 86 | 1010.5 |
| 20260506090259 | 58 | 235 | 4.0 | 5.0 | 0.00 | 0.00 | 0.00 | 82 | 1010.4 |
| 20260506085755 | 58 | 225 | 3.0 | 3.0 | 0.00 | 0.00 | 0.00 | 83 | 1010.3 |
| 20260506085251 | 58 | 225 | 4.0 | 6.0 | 0.00 | 0.00 | 0.00 | 84 | 1010.6 |
| 20260506084748 | 58 | 226 | 5.0 | 6.0 | 0.00 | 0.00 | 0.00 | 82 | 1010.6 |
| 20260506084244 | 59 | 230 | 5.0 | 6.0 | 0.00 | 0.00 | 0.00 | 82 | 1010.7 |
| 20260506083742 | 59 | 213 | 5.0 | 6.0 | 0.00 | 0.00 | 0.00 | 81 | 1010.7 |
| 20260506083240 | 59 | 223 | 6.0 | 7.0 | 0.00 | 0.00 | 0.00 | 80 | 1010.5 |
| 20260506082737 | 59 | 199 | 7.0 | 8.0 | 0.00 | 0.00 | 0.00 | 80 | 1010.6 |
| 20260506082232 | 59 | 203 | 5.0 | 5.0 | 0.00 | 0.00 | 0.00 | 80 | 1010.4 |
| 20260506081730 | 59 | 229 | 5.0 | 7.0 | 0.00 | 0.00 | 0.00 | 80 | 1010.3 |
| 20260506081227 | 59 | 199 | 4.0 | 5.0 | 0.00 | 0.00 | 0.00 | 82 | 1010.3 |
| 20260506080726 | 59 | 222 | 6.0 | 7.0 | 0.00 | 0.00 | 0.00 | 81 | 1010.4 |
| 20260506080222 | 59 | 242 | 5.0 | 6.0 | 0.00 | 0.00 | 0.00 | 80 | 1010.4 |
| 20260506073206 | 60 | 216 | 5.0 | 6.0 | 0.00 | 0.00 | 0.00 | 79 | 1010.5 |
| 20260506072702 | 59 | 227 | 3.0 | 3.0 | 0.00 | 0.00 | 0.00 | 79 | 1010.4 |
| 20260506072200 | 59 | 259 | 3.0 | 3.0 | 0.00 | 0.00 | 0.00 | 79 | 1010.7 |
| 20260506071657 | 59 | 250 | 3.0 | 3.0 | 0.00 | 0.00 | 0.00 | 80 | 1010.5 |
| 20260506071155 | 59 | 235 | 4.0 | 5.0 | 0.00 | 0.00 | 0.00 | 80 | 1010.3 |
| 20260506070652 | 59 | 203 | 3.0 | 3.0 | 0.00 | 0.00 | 0.00 | 81 | 1010.2 |
| 20260506070149 | 60 | 245 | 3.0 | 3.0 | 0.00 | 0.00 | 0.00 | 80 | 1010.1 |
| 20260506062126 | 60 | 202 | 3.0 | 3.0 | 0.00 | 0.00 | 0.00 | 77 | 1010.1 |
| 20260506061622 | 60 | 226 | 3.0 | 3.0 | 0.00 | 0.00 | 0.00 | 77 | 1010.2 |
| 20260506061120 | 60 | 222 | 3.0 | 5.0 | 0.00 | 0.00 | 0.00 | 77 | 1010.1 |
| 20260506060618 | 60 | 225 | 3.0 | 5.0 | 0.00 | 0.00 | 0.00 | 76 | 1010.2 |
| 20260506060114 | 60 | 196 | 4.0 | 5.0 | 0.00 | 0.00 | 0.00 | 76 | 1010.1 |
| 20260506051046 | 61 | 231 | 4.0 | 5.0 | 0.00 | 0.00 | 0.00 | 77 | 1010.4 |
| 20260506050544 | 61 | 209 | 5.0 | 5.0 | 0.00 | 0.00 | 0.00 | 77 | 1010.4 |
| 20260506045035 | 61 | 217 | 3.0 | 3.0 | 0.00 | 0.00 | 0.00 | 76 | 1010.4 |
| 20260506044533 | 61 | 241 | 5.0 | 6.0 | 0.00 | 0.00 | 0.00 | 77 | 1010.6 |
| 20260506044029 | 61 | 229 | 5.0 | 6.0 | 0.00 | 0.00 | 0.00 | 78 | 1010.4 |
| 20260506043526 | 61 | 232 | 3.0 | 5.0 | 0.00 | 0.00 | 0.00 | 78 | 1010.3 |
| 20260506043025 | 61 | 222 | 4.0 | 5.0 | 0.00 | 0.00 | 0.00 | 79 | 1010.3 |
| 20260506042524 | 61 | 223 | 5.0 | 6.0 | 0.00 | 0.00 | 0.00 | 79 | 1010.2 |
| 20260506042021 | 61 | 187 | 3.0 | 5.0 | 0.00 | 0.00 | 0.00 | 80 | 1010.3 |
| 20260506041520 | 61 | 223 | 5.0 | 6.0 | 0.00 | 0.00 | 0.00 | 79 | 1010.3 |
| 20260506041016 | 61 | 215 | 4.0 | 5.0 | 0.00 | 0.00 | 0.00 | 81 | 1010.2 |
| 20260506040514 | 60 | 226 | 4.0 | 5.0 | 0.00 | 0.00 | 0.00 | 83 | 1010.3 |
| 20260506040009 | 60 | 233 | 3.0 | 3.0 | 0.00 | 0.00 | 0.00 | 84 | 1010.3 |
| 20260506035507 | 60 | 236 | 2.0 | 2.0 | 0.00 | 0.00 | 0.00 | 87 | 1010.2 |
| 20260506035003 | 60 | 163 | 1.0 | 2.0 | 0.00 | 0.00 | 0.00 | 86 | 1010.4 |
| 20260506034501 | 60 | 125 | 1.0 | 1.0 | 0.00 | 0.00 | 0.00 | 86 | 1010.4 |
| 20260506033958 | 58 | 239 | 3.0 | 3.0 | 0.00 | 0.00 | 0.00 | 89 | 1010.2 |
| 20260506033455 | 57 | 111 | 0.0 | 0.0 | 0.00 | 0.00 | 0.00 | 92 | 1010.2 |
| 20260506032951 | 57 | 98 | 0.0 | 0.0 | 0.00 | 0.00 | 0.00 | 93 | 1010.2 |
| 20260506032449 | 57 | 98 | 0.0 | 0.0 | 0.00 | 0.00 | 0.00 | 93 | 1010.3 |
| 20260506031945 | 57 | 98 | 1.0 | 1.0 | 0.00 | 0.00 | 0.00 | 92 | 1010.3 |
| 20260506031443 | 58 | 85 | 0.0 | 0.0 | 0.00 | 0.00 | 0.00 | 91 | 1010.3 |
| 20260506030940 | 59 | 121 | 0.0 | 0.0 | 0.00 | 0.00 | 0.00 | 87 | 1010.3 |